星链-34521 (STARLINK-34521)

导读

STARLINK-34521是美国SpaceX星链星座的一颗卫星,于2025年6月25日发射升空。作为星链计划的组成部分,它主要为全球提供高速卫星互联网服务,尤其覆盖偏远地区、海洋空域等传统网络难以触及区域,进一步扩充了星链星座的部署规模,提升了星座整体的网络容量与覆盖能力。

Basic Information
目录编号:
64612
目录名称:
STARLINK-34521
国际标识:
2025-137U
轨道中心:
EARTH
卫星名称:
星链-34521
卫星全名:
星链-34521 (STARLINK-34521)
卫星状态:
在轨 (已飞行353 天)
发射日期:
2025-06-25 UTC
国别 :
美国 (US)
星等 :
--
Orbit Information
数据来源 国际轨道数据 AOE轨道数据
星历时间 2026-06-12T21:48:26+0800
1天前
查看轨道信息
2026-06-13T06:00:00+0800
1天前
查看轨道信息
半长轴 6851.168km 6853.382km
偏心率 0.0001094 0.0001342
轨道倾角 53.161° 53.158°
近地点辐角 42.162° 100.750°
升交点赤经 254.404° 252.822°
平近点角 317.946° 340.156°
近地点 472.281km 474.325km
远地点 473.781km 476.165km
周期 94.060分钟 94.106分钟
每日圈数 15.30932 15.301902
Detailed Information
固有亮度:
5
最大亮度:
2.5
卫星平台:
Starlink V1.0
覆盖范围:
全球
运营商:
太空探索技术公司
运营商所在国:
美国
制造商(研发单位):
太空探索技术公司
制造商所在国:
美国
使用方式:
暂无
Satellite Introduction
Starlink 计划是 SpaceX 推出的全球卫星互联网项目,通过发射低轨道卫星,为全球尤其是偏远地区提供高速、低延迟的互联网服务。自 2019 年起,Starlink 已部署数千颗卫星,旨在缩小全球数字鸿沟,推动互联网普及。该项目还为军事、航空等行业提供通信支持,带来广泛经济效益。
2D Orbit Map
3D Orbit Map
Orbit Altitude Analysis Chart
Orbit Inclination Analysis Chart
Orbit Comprehensive Analysis Chart
View Comprehensive Chart